Home > Weather > Wroclaw > Past weeks

Flag for Poland Weather for the Past 2 Weeks in Wroclaw, Poland

Now
63 °F

Passing clouds.


Feels Like: 63 °F
Forecast: 47 / 53 °F
Wind: 13 mph from Northwest

Location: Wroclaw Ii

Current Time: May 3, 2016 at 3:40:50 PM

Latest Report: May 3, 2016 at 3:00 PM


Visibility: N/A

Pressure: 29.95 "Hg

Humidity: 64%

Dew Point: 50 °F

Location of WroclawLocation

Historic Weather in Wroclaw — Graph

°F

Wroclaw Temperature Yesterday

Maximum temperature yesterday: 63 °F (at 1:30 PM)
Minimum temperature yesterday: 39 °F (at 5:00 AM)
Average temperature yesterday: 53 °F

High & Low Weather Summary for the Past Weeks

 TemperatureHumidityPressure
High63 °F (Apr 30, 3:30 PM)93% (Apr 21, 2:30 AM)30.36 "Hg (Apr 21, 2:30 AM)
Low28 °F (Apr 25, 6:00 AM)31% (Apr 29, 6:30 PM)29.53 "Hg (Apr 26, 3:00 PM)
Average46 °F66%30.00 "Hg
* Reported Apr 18 2:00 PM — May 3 2:30 PM, Wroclaw, Weather by CustomWeather, © 2016

Note: Actual official high and low records may vary slightly from our data, if they occured in-between our weather recording intervals... More about our weather records

Advertising

Wroclaw Weather History for the Previous 24 Hours

Scroll right to see more
 ConditionsComfort  
Time TempWeatherWind HumidityBarometerVisibility
2:30 PM
Tue, May 3
63 °FPassing clouds.8 mph64%29.98 "HgN/A
1:30 PM59 °FSunny.2 mph72%30.01 "Hg10 mi
1:00 PM57 °FSprinkles. Passing clouds.1 mph72%30.01 "HgN/A
12:30 PM59 °FSprinkles. Passing clouds.2 mph68%30.01 "HgN/A
12:00 PM57 °FSunny.6 mph72%30.01 "Hg10 mi
11:30 AM57 °FPassing clouds.5 mph67%30.01 "HgN/A
11:00 AM55 °FPassing clouds.5 mph72%30.01 "HgN/A
10:30 AM54 °FPassing clouds.5 mph77%30.01 "HgN/A
10:00 AM52 °FPassing clouds.5 mph82%30.04 "HgN/A
9:30 AM50 °FSunny.3 mph82%30.04 "Hg10 mi
9:00 AM48 °FSunny.5 mph87%30.04 "Hg10 mi
8:30 AM46 °FSunny.6 mph93%30.04 "Hg10 mi
8:00 AM46 °FClear.6 mph87%30.04 "Hg6 mi
7:30 AM45 °FClear.5 mph93%30.04 "Hg6 mi
7:00 AM45 °FClear.6 mph93%30.04 "Hg5 mi
6:30 AM43 °FClear.8 mph93%30.04 "Hg5 mi
6:00 AM41 °FClear.7 mph93%30.04 "Hg4 mi
5:30 AM39 °FClear.7 mph93%30.04 "Hg5 mi
5:00 AM39 °FClear.5 mph93%30.04 "Hg5 mi
4:30 AM41 °FClear.6 mph93%30.04 "Hg10 mi
4:00 AM41 °FClear.2 mph93%30.04 "Hg10 mi
3:00 AM43 °FClear.3 mph87%30.07 "Hg10 mi
2:30 AM43 °FClear.3 mph87%30.07 "Hg10 mi
2:00 AM43 °FClear.3 mph87%30.07 "Hg10 mi
1:30 AM43 °FClear.3 mph87%30.09 "Hg10 mi
1:00 AM43 °FClear.3 mph87%30.09 "Hg10 mi
12:30 AM46 °FClear.3 mph76%30.09 "Hg10 mi
12:00 AM46 °FClear.3 mph76%30.09 "Hg10 mi
11:00 PM
Mon, May 2
50 °FClear.3 mph71%30.09 "Hg10 mi
10:30 PM52 °FClear.6 mph67%30.12 "Hg10 mi
10:00 PM52 °FClear.6 mph67%30.12 "Hg10 mi
9:30 PM54 °FClear.3 mph63%30.12 "Hg10 mi
9:00 PM55 °FSunny.5 mph59%30.12 "Hg10 mi
8:30 PM55 °FSunny.5 mph59%30.12 "Hg10 mi
8:00 PM57 °FSunny.7 mph55%30.12 "Hg10 mi
7:30 PM59 °FPassing clouds.8 mph51%30.12 "HgN/A
7:00 PM61 °FPassing clouds.10 mph48%30.12 "HgN/A
6:30 PM61 °FPassing clouds.9 mph48%30.12 "HgN/A
6:00 PM61 °FPassing clouds.10 mph48%30.12 "HgN/A
5:30 PM61 °FSunny.12 mph48%30.15 "Hg10 mi
5:00 PM63 °FPassing clouds.12 mph45%30.15 "HgN/A
4:30 PM61 °FPassing clouds.12 mph45%30.15 "HgN/A
4:00 PM61 °FPassing clouds.8 mph42%30.15 "HgN/A
3:30 PM61 °FPassing clouds.10 mph48%30.15 "HgN/A
3:00 PM63 °FPassing clouds.9 mph45%30.15 "HgN/A
Weather by CustomWeather, © 2016

See weather overviewHow to use our weather pages